Back to catalog

STARLINK-35096

AliveCommunicationsVLEO
NORAD 65479·PAYLOAD·🇺🇸 United States

Launched Sep 3, 2025 from Cape Canaveral Space Force Station

Loading…

Next Passes (next 24 hours)

TLE

FreshSource: CelesTrak SupGP

Epoch: Sep 14, 2026, 22:41 UTC

1 65479C 25195X   26257.94562500  .00003450  00000+0  11095-3 0  2573
2 65479  53.1581  97.6057 0001377  82.3039 172.4827 15.31698209    19

Track STARLINK-35096 in real time with AllMySat

Download on the App Store